CZ-6A DEB, 56645

Orbit data source: Space-Track

CZ-6A DEB, 56645 is space debris in SSO originally from a launch on Fri, 11 Nov 2022 UTC launched from the Taiyaun Space Center, China (TSC). Debris objects in space refer to the collection of defunct objects orbiting the Earth. Examples of debris include non-operational satellites, rocket bodies, and fragments generated from explosions, collisions, or faulty payload assembly.

Loading next visibility...
Identifier
56645, 2022-151AFV
Orbit
SSO
Country
Flag of CNCN / PRC
Related business
Manufacturer
SAST
Mission
Spacecraft
Bus & Motor
Unknown
Mass
Unknown
Launch date (UTC)
2022-11-11 (3 years ago)
Launch vehicle
Unknown
Launch site
Taiyaun Space Center, China (TSC)
Object type
Payload
Rocket body
Debris
Shape & HBR
Unknown shape, 0.1 m
Radar Cross Section
Small (<0.1 m²)

Expand to show TLE details & history
Last TLE update: 1 day ago

TLE from 1 day ago
0 CZ-6A DEB
1 56645U 22151AFV 25348.26629004  .00002296  00000-0  11313-2 0  9998
2 56645  98.8016 351.6306 0041414 150.8960 209.4536 14.18083644136724
Epoch: 2025-12-14T06:23Z
TLE epoch observation values (Epoch: 2025-12-14T06:23:27.459Z)
Latitude
0.00001°
Longitude
172.58451°
Altitude
860.785 km
Speed
7.409 km/s
True Right ascension
23h 26m 31s
True Declination
0° 00' 00"
Sunlit
Object was in daylight at epoch
Visualization orbit readout
Latitude
Unknown
Longitude
Unknown
Altitude
Unknown
Speed
Unknown
Apparent Right ascension
Unknown
Apparent Declination
Unknown
Sunlit
N/A
Visualization observer readout
Local Sidereal Time
15:06:14
Azimuth
Unknown
Elevation
Unknown
Doppler factor
Unknown
Orbital elements
Apogee altitude
858.854 km
Perigee altitude
799.159 km
Semi-major axis
7,207.144 km
Eccentricity
0.00414
Inclination
98.8016°
RAAN
351.6306°
Arg. of periapsis
150.896°
True anomaly
209.22129°
Mean anomaly
209.4536°
Eccentric anomaly
209.33734°
Mean motion
3.5473 °/min
Orbital period
101.49 mins
BSTAR
0.0011313
Loading maneuver chart data...
Computing Atmospheric mass density...
Loading historical data...
Loading historical data...
Loading historical data...
Loading historical data...
Loading historical data...
Loading historical data...
Loading historical data...

Documentation

Showing up to 5 results
|